User: anonymous   Login
Location: Zagreb
(45.8000°N, 16.0000°E)
Time: 13:38:12
(UTC+02:00)
Language:

Tiangong - Orbit

View from above orbital plane
View from above orbital plane
View from above satellite
View from above satellite

Ground track
Ground track

The orbit data is extracted from the following two-line orbital elements,

1 48274U 21035A   24261.23123347  .00056442  00000-0  57531-3 0  9991
2 48274  41.4674 241.9067 0002581 169.7447 190.3446 15.64214481193495
Epoch (UTC): 17 September 2024 05:32:58
Eccentricity: 0.0002581
inclination: 41.4674°
perigee height: 374 km
apogee height: 377 km
right ascension of ascending node: 241.9067°
argument of perigee: 169.7447°
revolutions per day: 15.64214481
mean anomaly at epoch: 190.3446°
orbit number at epoch: 19349

The dashed part of the orbit path shows where the satellite is in the earth's shadow,  

DLR